| time (UTC) | temp F | wind direction | speed knots | gust knots | rain 1hr in | rain 24hr in | rain mn in | humidity % | barometer mb |
| 20260902203331 | 88 | 257 | 1.7 | 2.6 | 0.00 | 0.00 | 0.00 | ||
| 20260902201829 | 87 | 37 | 0.9 | 0.0 | 0.00 | 0.00 | 0.00 | ||
| 20260902200329 | 87 | 321 | 0.9 | 1.7 | 0.00 | 0.00 | 0.00 | ||
| 20260902194828 | 89 | 349 | 0.9 | 0.0 | 0.00 | 0.00 | 0.00 | ||
| 20260902193330 | 91 | 329 | 2.6 | 0.0 | 0.00 | 0.00 | 0.00 | ||
| 20260902191826 | 88 | 359 | 3.5 | 4.3 | 0.00 | 0.00 | 0.00 | ||
| 20260902190325 | 91 | 31 | 4.3 | 2.6 | 0.00 | 0.00 | 0.00 | ||
| 20260902184824 | 89 | 309 | 2.6 | 2.6 | 0.00 | 0.00 | 0.00 | ||
| 20260902183324 | 87 | 349 | 3.5 | 5.2 | 0.00 | 0.00 | 0.00 | ||
| 20260902181823 | 84 | 333 | 0.0 | 0.0 | 0.00 | 0.00 | 0.00 | ||
| 20260902180322 | 85 | 302 | 0.0 | 0.9 | 0.00 | 0.00 | 0.00 | ||
| 20260902174821 | 87 | 143 | 0.0 | 0.0 | 0.00 | 0.00 | 0.00 | ||
| 20260902173320 | 86 | 13 | 3.5 | 2.6 | 0.00 | 0.00 | 0.00 | ||
| 20260902170319 | 85 | 80 | 2.6 | 4.3 | 0.00 | 0.00 | 0.00 | ||
| 20260902164819 | 83 | 350 | 3.5 | 0.9 | 0.00 | 0.00 | 0.00 | ||
| 20260902163318 | 82 | 316 | 2.6 | 4.3 | 0.00 | 0.00 | 0.00 | ||
| 20260902161818 | 83 | 359 | 0.9 | 2.6 | 0.00 | 0.00 | 0.00 | ||
| 20260902160319 | 82 | 20 | 1.7 | 0.9 | 0.00 | 0.00 | 0.00 | ||
| 20260902153317 | 79 | 281 | 2.6 | 2.6 | 0.00 | 0.00 | 0.00 | ||
| 20260902151817 | 78 | 349 | 1.7 | 0.0 | 0.00 | 0.00 | 0.00 | ||
| 20260902110316 | 63 | 242 | 0.0 | 0.0 | 0.00 | 0.00 | 0.00 | ||
| 20260902104814 | 63 | 242 | 0.0 | 0.0 | 0.00 | 0.00 | 0.00 | ||
| 20260902103318 | 63 | 242 | 0.0 | 0.0 | 0.00 | 0.00 | 0.00 | ||
| 20260902101813 | 63 | 242 | 0.0 | 0.0 | 0.00 | 0.00 | 0.00 | ||
| 20260902100313 | 63 | 242 | 0.0 | 0.0 | 0.00 | 0.00 | 0.00 | ||
| 20260902094813 | 64 | 242 | 0.0 | 0.0 | 0.00 | 0.00 | 0.00 | ||
| 20260902093311 | 64 | 242 | 0.0 | 0.0 | 0.00 | 0.00 | 0.00 | ||
| 20260902091811 | 65 | 242 | 0.0 | 0.0 | 0.00 | 0.00 | 0.00 | ||
| 20260902090310 | 65 | 242 | 0.0 | 0.0 | 0.00 | 0.00 | 0.00 | ||
| 20260902084810 | 65 | 242 | 0.0 | 0.0 | 0.00 | 0.00 | 0.00 | ||
| 20260902083310 | 67 | 242 | 0.9 | 0.0 | 0.00 | 0.00 | 0.00 | ||
| 20260902081809 | 67 | 108 | 0.0 | 0.0 | 0.00 | 0.00 | 0.00 | ||
| 20260902080309 | 66 | 108 | 0.0 | 0.0 | 0.00 | 0.00 | 0.00 | ||
| 20260902074808 | 67 | 108 | 0.0 | 0.0 | 0.00 | 0.00 | 0.00 | ||
| 20260902073308 | 67 | 108 | 0.0 | 0.0 | 0.00 | 0.00 | 0.00 | ||
| 20260902071807 | 68 | 108 | 0.0 | 0.0 | 0.00 | 0.00 | 0.00 | ||
| 20260902070307 | 68 | 108 | 0.0 | 0.0 | 0.00 | 0.00 | 0.00 | ||
| 20260902064806 | 68 | 108 | 0.0 | 0.0 | 0.00 | 0.00 | 0.00 | ||
| 20260902063306 | 67 | 108 | 0.0 | 0.0 | 0.00 | 0.00 | 0.00 | ||
| 20260902061805 | 65 | 108 | 0.0 | 0.0 | 0.00 | 0.00 | 0.00 | ||
| 20260902060305 | 65 | 108 | 0.0 | 0.0 | 0.00 | 0.00 | 0.00 | ||
| 20260902054805 | 65 | 108 | 0.0 | 0.0 | 0.00 | 0.00 | 0.00 | ||
| 20260902053304 | 66 | 108 | 0.0 | 0.0 | 0.00 | 0.00 | 0.00 | ||
| 20260902051804 | 67 | 108 | 0.0 | 0.0 | 0.00 | 0.00 | 0.00 | ||
| 20260902050303 | 66 | 108 | 0.0 | 0.0 | 0.00 | 0.00 | 0.00 | ||
| 20260902044803 | 67 | 108 | 0.0 | 0.0 | 0.00 | 0.00 | 0.00 | ||
| 20260902043302 | 67 | 108 | 0.0 | 0.0 | 0.00 | 0.00 | 0.00 | ||
| 20260902041802 | 67 | 108 | 0.0 | 0.0 | 0.00 | 0.00 | 0.00 | ||
| 20260902040302 | 68 | 108 | 0.0 | 0.0 | 0.00 | 0.00 | 0.00 | ||
| 20260902034800 | 69 | 108 | 0.0 | 0.0 | 0.00 | 0.00 | 0.00 | ||
| 20260902033300 | 69 | 108 | 0.0 | 0.0 | 0.00 | 0.00 | 0.00 | ||
| 20260902031759 | 69 | 108 | 0.0 | 0.0 | 0.00 | 0.00 | 0.00 | ||
| 20260902030259 | 69 | 108 | 0.0 | 0.0 | 0.00 | 0.00 | 0.00 | ||
| 20260902024758 | 68 | 108 | 0.0 | 0.0 | 0.00 | 0.00 | 0.00 | ||
| 20260902023258 | 69 | 108 | 0.0 | 0.0 | 0.00 | 0.00 | 0.00 | ||
| 20260902021757 | 69 | 108 | 0.0 | 0.0 | 0.00 | 0.00 | 0.00 | ||
| 20260902020257 | 69 | 108 | 0.0 | 0.0 | 0.00 | 0.00 | 0.00 | ||
| 20260902014756 | 70 | 141 | 0.0 | 0.0 | 0.00 | 0.00 | 0.00 | ||
| 20260902013255 | 71 | 103 | 0.0 | 0.0 | 0.00 | 0.00 | 0.00 | ||
| 20260902011754 | 72 | 111 | 0.0 | 0.0 | 0.00 | 0.00 | 0.00 | ||
| 20260902010253 | 73 | 138 | 0.0 | 0.0 | 0.00 | 0.00 | 0.00 | ||
| 20260902004753 | 74 | 138 | 0.0 | 0.0 | 0.00 | 0.00 | 0.00 | ||
| 20260902003252 | 74 | 107 | 0.9 | 0.0 | 0.00 | 0.00 | 0.00 | ||
| 20260902001751 | 76 | 127 | 4.3 | 4.3 | 0.00 | 0.00 | 0.00 | ||
| 20260902000250 | 77 | 136 | 1.7 | 2.6 | 0.00 | 0.00 | 0.00 | ||
| 20260901234749 | 78 | 56 | 2.6 | 1.7 | 0.00 | 0.00 | 0.00 | ||
| 20260901233248 | 80 | 91 | 3.5 | 2.6 | 0.00 | 0.00 | 0.00 | ||
| 20260901231747 | 80 | 45 | 4.3 | 4.3 | 0.00 | 0.00 | 0.00 | ||
| 20260901230246 | 83 | 321 | 5.2 | 5.2 | 0.00 | 0.00 | 0.00 | ||
| 20260901224745 | 85 | 281 | 1.7 | 0.0 | 0.00 | 0.00 | 0.00 | ||
| 20260901223244 | 87 | 260 | 3.5 | 3.5 | 0.00 | 0.00 | 0.00 | ||
| 20260901221742 | 84 | 338 | 5.2 | 0.9 | 0.00 | 0.00 | 0.00 | ||
| 20260901220241 | 84 | 297 | 3.5 | 3.5 | 0.00 | 0.00 | 0.00 | ||
| 20260901211738 | 84 | 297 | 2.6 | 3.5 | 0.00 | 0.00 | 0.00 | ||
| 20260901210237 | 85 | 28 | 2.6 | 1.7 | 0.00 | 0.00 | 0.00 |